Hurricane Symbol View the latest observations near Atlantic Remnants Of Alberto.

Station 44009 (LLNR 168) - DELAWARE BAY 26 NM Southeast of Cape May, NJ Image indicating link to RSS feed of recent meteorological observations for station 44009


Conditions at 44009 as of
(5:40 pm EDT)
2140 GMT on 06/20/2024:
     

Click on the graph icon in the table below to see a time series plot of the last five days of that observation.

5-day plot - Wind Direction Wind Direction (WDIR): S ( 180 deg true )
5-day plot - Wind Speed Wind Speed (WSPD): 13.6 kts
5-day plot - Wind Gust Wind Gust (GST): 17.5 kts
5-day plot - Atmospheric Pressure Atmospheric Pressure (PRES):30.27 in
5-day plot - Air Temperature Air Temperature (ATMP): 76.6 °F
5-day plot - Water Temperature Water Temperature (WTMP): 74.8 °F
5-day plot - Dew Point Dew Point (DEWP): 71.2 °F
5-day plot - Wind Speed at 10 Meters Wind Speed at 10 meters (WSPD10M): 15.5 kts
5-day plot - Wind Speed at 20 Meters Wind Speed at 20 meters (WSPD20M): 15.5 kts
5-day plot -  Wind Speed, Wind Gust and Atmospheric Pressure Combined plot of Wind Speed, Gust, and Air Pressure
Supplemental Measurements
Highest 1-minute Wind Speed
Time (EDT)5-day plot - 1-Minute Wind Speed WSPD 5-day plot - 1-Minute Wind Direction WDIR
5:36 pm 15.5 kts-
Previous observations
TIME
(EDT)
5-day plot - Wind Direction
WDIR
 
5-day plot - Wind Speed
WSPD
kts
5-day plot - Wind Gust
GST
kts
5-day plot - Wave Height
WVHT
ft
5-day plot - Dominant Wave Period
DPD
sec
5-day plot - Average Wave Period
APD
sec
5-day plot - Mean Wave Direction
MWD
 
5-day plot - Atmospheric Pressure
PRES
in
5-day plot - Pressure Tendency
PTDY
in
5-day plot - Air Temperature
ATMP
°F
5-day plot - Water Temperature
WTMP
°F
5-day plot - Dew Point
DEWP
°F
5-day plot - Salinity
SAL
psu
5-day plot - Visibility
VIS
nmi
5-day plot - Tide (above MLLW)
TIDE
ft
2024-06-20 05:30 pm S 13.6 15.5----30.27- 76.8 74.8 71.6---
2024-06-20 05:20 pm S 13.6 15.5 3.0 84.3ESE30.28- 76.6 74.8 71.1---
2024-06-20 05:10 pm S 13.6 15.5 3.0-4.3ESE30.28- 76.8 74.8 71.6---
2024-06-20 05:00 pm S 11.7 15.5----30.29-0.05 76.6 74.8 71.1---
2024-06-20 04:50 pm S 11.7 13.6 3.0 84.6 SE30.29- 76.6 74.8 71.4---
2024-06-20 04:40 pm S 11.7 13.6----30.29- 76.6 74.8 71.2---
2024-06-20 04:30 pm S 11.7 13.6----30.29- 76.6 74.8 71.4---
2024-06-20 04:20 pm S 11.7 15.5 3.0 84.5 SE30.30- 76.5 74.8 71.4---
2024-06-20 04:10 pm S 11.7 15.5 3.0-4.5 SE30.30- 76.5 74.8 71.4---
2024-06-20 04:00 pm S 11.7 13.6----30.31-0.04 76.5 74.7 71.6---
2024-06-20 03:50 pm S 11.7 13.6 2.6 84.8 SE30.31- 76.3 74.8 71.8---
2024-06-20 03:40 pm S 11.7 13.6----30.31- 76.3 74.8 71.8---
2024-06-20 03:30 pm S 11.7 13.6----30.32- 76.3 74.8 71.6---
2024-06-20 03:20 pm S 9.7 13.6 2.6 85.1 SE30.32- 76.3 74.8 71.8---
2024-06-20 03:10 pm S 9.7 11.7 2.6-5.1 SE30.32- 76.3 74.8 71.6---
2024-06-20 03:00 pm S 9.7 11.7----30.32-0.03 76.3 74.8 71.6---
2024-06-20 02:50 pm S 9.7 11.7 2.6 75.4 SE30.32- 76.3 74.8 71.6---
2024-06-20 02:40 pm S 9.7 11.7----30.33- 76.1 74.8 71.4---
2024-06-20 02:30 pm S 9.7 11.7----30.33- 76.1 75.0 71.6---
2024-06-20 02:20 pm S 9.7 11.7 2.6 85.5 SE30.33- 76.1 75.0 71.8---
2024-06-20 02:10 pm S 7.8 9.7 2.6-5.5 SE30.33- 76.1 74.8 71.8---
2024-06-20 02:00 pm S 7.8 9.7----30.34-0.02 76.1 74.7 71.8---
2024-06-20 01:50 pm S 7.8 9.7 3.0 85.8 SE30.34- 76.1 74.8 72.0---
2024-06-20 01:40 pm S 7.8 7.8----30.34- 76.1 74.8 72.1---
2024-06-20 01:30 pm S 7.8 7.8----30.34- 75.9 74.8 72.0---
2024-06-20 01:20 pm S 7.8 7.8 3.0 85.9 SE30.34- 75.9 74.8 72.0---
2024-06-20 01:10 pm S 5.8 7.8----30.35- 75.9 74.7 72.1---
2024-06-20 01:00 pm S 5.8 7.8----30.35-0.01 75.7 74.5 72.1---
2024-06-20 12:50 pm S 5.8 7.8 2.6 85.9 SE30.35- 75.7 74.5 72.3---
2024-06-20 12:40 pm S 5.8 7.8----30.35- 75.7 74.5 72.3---
2024-06-20 12:30 pmSSW 5.8 7.8----30.35- 75.7 74.5 72.3---
2024-06-20 12:20 pmSSW 5.8 5.8 2.6 85.8 SE30.35- 75.7 74.3 72.3---
2024-06-20 12:10 pm S 5.8 7.8 2.6-5.8 SE30.35- 75.6 74.5 72.3---
2024-06-20 12:00 pm S 5.8 5.8----30.35-0.01 75.6 74.3 72.3---
2024-06-20 11:50 amSSW 5.8 5.8 2.6 95.9 SE30.36- 75.6 74.5 72.5---
2024-06-20 11:40 amSSW 5.8 7.8----30.36- 75.6 74.3 72.5---
2024-06-20 11:30 amSSW 5.8 5.8----30.36- 75.6 74.1 72.5---
2024-06-20 11:20 amSSW 3.9 5.8 2.6 85.7 SE30.36- 75.6 73.9 72.5---
2024-06-20 11:10 amSSW 3.9 5.8 2.6-5.7 SE30.36- 75.6 73.9 72.3---
2024-06-20 11:00 amSSW 3.9 5.8----30.36+0.00 75.6 73.8 72.5---
2024-06-20 10:50 amSSW 3.9 5.8 2.6 75.9 SE30.36- 75.4 73.9 72.5---
2024-06-20 10:40 amSSW 3.9 5.8----30.36- 75.4 73.8 72.5---
2024-06-20 10:30 amSSW 3.9 5.8----30.36- 75.4 73.6 72.7---
2024-06-20 10:20 amSSW 3.9 5.8 2.6 85.9 SE30.37- 75.2 73.6 72.7---
2024-06-20 10:10 amSSW 3.9 5.8 2.6-5.9 SE30.36- 75.2 73.6 72.9---
2024-06-20 10:00 amSSW 3.9 5.8----30.36+0.01 75.2 73.4 73.0---
2024-06-20 09:50 amSSW 3.9 5.8 2.6 85.9 SE30.36- 75.0 73.4 72.9---
2024-06-20 09:40 amSSW 3.9 5.8----30.36- 75.0 73.4 72.9---
2024-06-20 09:30 amSSW 3.9 5.8----30.37- 75.0 73.4 73.0---
2024-06-20 09:20 am S 3.9 5.8 2.3 85.6 SE30.37- 75.0 73.6 73.0---
2024-06-20 09:10 am S 3.9 5.8 2.3-5.6 SE30.37- 74.8 73.4 72.9---
2024-06-20 09:00 am S 5.8 5.8----30.37+0.03 74.8 73.4 72.7---
2024-06-20 08:50 am S 3.9 5.8 2.6 85.8 SE30.37- 74.8 73.4 72.7---
2024-06-20 08:40 am S 5.8 5.8----30.37- 74.7 73.4 72.5---
2024-06-20 08:30 am S 5.8 5.8----30.36- 74.7 73.4 72.5---
2024-06-20 08:20 am S 5.8 7.8 2.6 85.7 SE30.36- 74.7 73.4 72.5---
2024-06-20 08:10 am S 5.8 7.8 2.6-5.7 SE30.36- 74.5 73.2 72.3---
2024-06-20 08:00 am S 5.8 5.8----30.36+0.03 74.5 73.2 72.3---
2024-06-20 07:50 amSSE 3.9 5.8 2.3 85.4SSE30.35- 74.5 73.2 72.3---
2024-06-20 07:40 amSSE 3.9 5.8----30.35- 74.5 73.2 72.3---
2024-06-20 07:30 amSSE 5.8 5.8----30.35- 74.3 73.2 72.1---
2024-06-20 07:20 amSSE 5.8 5.8 2.3 95.4ESE30.35- 74.3 73.2 72.1---
2024-06-20 07:10 am S 5.8 5.8----30.35- 74.3 73.2 72.1---
2024-06-20 07:00 am S 3.9 5.8----30.35+0.03 74.3 73.2 72.1---
2024-06-20 06:50 amSSE 3.9 5.8 2.6 85.4 SE30.35- 74.3 73.2 72.1---
2024-06-20 06:40 amSSE 3.9 5.8----30.34- 74.1 73.2 72.0---
2024-06-20 06:30 amSSE 3.9 5.8----30.35- 73.9 73.2 72.0---
2024-06-20 06:20 amSSE 3.9 5.8 2.3 75.2SSE30.35- 73.8 73.2 72.0---
2024-06-20 06:10 amSSE 3.9 3.9 2.3-5.2SSE30.34- 73.4 73.2 71.8---
2024-06-20 06:00 amSSE 1.9 3.9----30.34+0.02 73.2 73.2 71.8---
2024-06-20 05:50 amSSE 1.9 3.9 2.3 85.4 SE30.34- 73.0 73.2 71.8---
2024-06-20 05:40 am S 1.9 3.9----30.34- 72.9 73.2 71.8---
2024-06-20 05:30 am S 1.9 3.9----30.33- 72.9 73.0 71.8---
2024-06-20 05:20 am S 1.9 3.9 2.3 85.2 SE30.33- 72.9 73.0 71.8---
2024-06-20 05:10 am S 1.9 3.9 2.3-5.2 SE30.32- 72.9 73.2 72.0---
2024-06-20 05:00 am S 1.9 1.9----30.32+0.00 72.9 73.2 71.8---
2024-06-20 04:50 am S 1.9 1.9 2.3 85.2SSE30.32- 73.0 73.2 72.0---
2024-06-20 04:40 amSSW 1.9 1.9----30.33- 73.0 73.2 72.0---
2024-06-20 04:30 amSSW 1.9 1.9----30.32- 73.0 73.2 72.0---
2024-06-20 04:20 am S 1.9 1.9 2.3 75.4SSE30.33- 73.0 73.2 72.0---
2024-06-20 04:10 am S 1.9 1.9 2.3-5.4SSE30.32- 73.0 73.2 72.0---
2024-06-20 04:00 am S 1.9 3.9----30.32+0.00 73.2 73.2 72.1---
2024-06-20 03:50 am S 1.9 3.9 2.3 75.0 SE30.32- 73.2 73.2 72.0---
2024-06-20 03:40 am S 1.9 1.9----30.32- 73.2 73.2 72.0---
2024-06-20 03:30 am S 1.9 1.9----30.32- 73.2 73.2 72.0---
2024-06-20 03:20 am S 1.9 3.9 2.3 75.2 SE30.32- 73.2 73.2 72.0---
2024-06-20 03:10 am S 1.9 1.9 2.3-5.2 SE30.32- 73.4 73.2 72.0---
2024-06-20 03:00 amSSW 1.9 3.9----30.32-0.02 73.4 73.2 72.0---
2024-06-20 02:50 amSSW 3.9 3.9 2.3 75.2SSE30.32- 73.4 73.2 72.0---
2024-06-20 02:40 am S 3.9 3.9----30.32- 73.4 73.2 72.0---
2024-06-20 02:30 am S 3.9 3.9----30.32- 73.4 73.2 72.0---
2024-06-20 02:20 am S 1.9 3.9 2.6 75.2 SE30.32- 73.4 73.2 72.0---
2024-06-20 02:10 am S 1.9 3.9----30.32- 73.4 73.2 72.0---
2024-06-20 02:00 am S 1.9 3.9----30.32-0.02 73.6 73.2 72.0---
2024-06-20 01:50 am S 1.9 3.9 2.3 85.0SSE30.32- 73.6 73.2 72.0---
2024-06-20 01:40 am S 1.9 3.9----30.32- 73.8 73.2 72.0---
2024-06-20 01:30 am S 3.9 3.9----30.33- 73.8 73.2 71.8---
2024-06-20 01:20 am S 3.9 3.9 2.3 74.8 SE30.33- 73.8 73.2 71.6---
2024-06-20 01:10 am S 3.9 3.9 2.3-4.8 SE30.33- 73.8 73.2 71.6---
2024-06-20 01:00 am S 3.9 3.9----30.33-0.01 73.9 73.2 71.8---
2024-06-20 12:50 am S 3.9 5.8 2.3 84.8 SE30.33- 73.9 73.4 71.6---
2024-06-20 12:40 am S 5.8 5.8 2.3-4.8 SE30.33- 74.1 73.4 71.8---
2024-06-20 12:30 am S 5.8 5.8----30.33- 74.1 73.4 71.6---
2024-06-20 12:20 am S 5.8 7.8 2.3 64.9SSE30.34- 74.1 73.4 71.6---
2024-06-20 12:10 am S 5.8 7.8 2.3-4.9SSE30.33- 74.1 73.4 71.6---
2024-06-20 12:00 am S 5.8 7.8----30.33-0.01 74.1 73.4 71.6---
2024-06-19 11:50 pm S 5.8 7.8 2.3 54.7 SE30.34- 74.3 73.4 71.6---
2024-06-19 11:40 pm S 5.8 7.8----30.34- 74.3 73.4 71.6---
2024-06-19 11:30 pm S 5.8 7.8----30.34- 74.3 73.2 71.6---
2024-06-19 11:20 pm S 5.8 7.8 2.3 64.7SSE30.34- 74.3 73.2 71.6---
2024-06-19 11:10 pm S 5.8 7.8----30.35- 74.3 73.4 71.4---
2024-06-19 11:00 pm S 5.8 7.8----30.35+0.00 74.3 73.6 71.4---
2024-06-19 10:50 pm S 7.8 7.8 2.3 74.5 SE30.34- 74.3 73.6 71.2---
2024-06-19 10:40 pm S 7.8 9.7----30.34- 74.5 73.6 71.4---
2024-06-19 10:30 pmSSE 7.8 9.7----30.34- 74.5 73.6 71.2---
2024-06-19 10:20 pmSSE 7.8 9.7 2.3 64.3 SE30.35- 74.5 73.6 71.2---
2024-06-19 10:10 pmSSE 7.8 9.7 2.3-4.3 SE30.35- 74.5 73.6 71.2---
2024-06-19 10:00 pmSSE 7.8 9.7----30.34+0.00 74.5 73.6 71.2---
2024-06-19 09:50 pmSSE 9.7 11.7 2.3 64.4SSE30.34- 74.5 73.6 71.1---
2024-06-19 09:40 pmSSE 9.7 9.7----30.34- 74.5 73.6 71.1---
2024-06-19 09:30 pmSSE 9.7 11.7----30.35- 74.5 73.6 71.1---
2024-06-19 09:20 pmSSE 7.8 9.7 2.3 64.3SSE30.35- 74.7- 71.4---
2024-06-19 09:10 pmSSE 9.7 11.7----30.34- 74.7 73.8 71.1---
2024-06-19 09:00 pmSSE 9.7 11.7----30.35+0.01 74.7 73.8 71.1---
2024-06-19 08:50 pmSSE 9.7 11.7 2.3 64.4SSE30.34- 74.7 73.8 71.2---
2024-06-19 08:40 pmSSE 9.7 11.7----30.33- 74.7 73.8 71.2---
2024-06-19 08:30 pmSSE 9.7 11.7----30.34- 74.7 73.9 71.1---
2024-06-19 08:20 pmSSE 9.7 9.7 2.3 54.6 S30.33- 74.8 73.9 70.9---
2024-06-19 08:10 pmSSE 7.8 9.7 2.3-4.6 S30.33- 74.8 73.9 71.1---
2024-06-19 08:00 pmSSE 7.8 9.7----30.33+0.00 75.0 73.9 71.2---
2024-06-19 07:50 pmSSE 7.8 9.7 2.3 64.5SSE30.33- 75.2 74.1 70.9---
2024-06-19 07:40 pmSSE 7.8 9.7----30.33- 75.2 74.1 71.1---
2024-06-19 07:30 pmSSE 7.8 9.7----30.33- 75.4 74.1 70.9---
2024-06-19 07:10 pmSSE 7.8 9.7 2.3-4.5SSE30.33- 75.4 74.1 71.1---
2024-06-19 07:00 pmSSE 7.8 9.7----30.33-0.02 75.6 74.1 71.2---
2024-06-19 06:50 pmSSE 7.8 9.7 2.6 74.6ESE30.33- 75.6 74.1 71.1---
2024-06-19 06:40 pmSSE 7.8 9.7----30.33- 75.7 74.3 71.4---
2024-06-19 06:30 pmSSE 7.8 9.7----30.33- 75.7 74.3 71.2---
2024-06-19 06:20 pmSSE 7.8 9.7 2.6 64.4 SE30.33- 75.7 74.3 71.1---
2024-06-19 06:10 pmSSE 7.8 9.7 2.6-4.4 SE30.33- 75.7 74.3 70.9---
2024-06-19 06:00 pmSSE 7.8 9.7----30.33-0.03 75.7 74.5 70.9---
2024-06-19 05:50 pmSSE 7.8 9.7 2.3 74.4 SE30.33- 75.7 74.5 71.2---

Detailed Wave Summary
for 44009 as of (5:10 pm EDT)
2110 GMT on 06/20/2024:

These wave data are displayed in rounded times.

     

Click on the graph icon in the table below to see a time series plot of the last five days of that observation.

5-day plot - Significant Wave Height Significant Wave Height (WVHT): 3.0 ft
5-day plot - Swell Height Swell Height (SwH): 2.0 ft
5-day plot - Swell Period Swell Period (SwP): 7.7 sec
5-day plot - Swell Direction Swell Direction (SwD):ESE
5-day plot - Wind Wave Height Wind Wave Height (WWH): 2.0 ft
5-day plot - Wind Wave Period Wind Wave Period (WWP): 5.6 sec
5-day plot - Wind Wave Direction Wind Wave Direction (WWD):SSE
5-day plot - Wave Steepness Wave Steepness (STEEPNESS): AVERAGE
5-day plot - Average Wave Period Average Wave Period (APD): 4.3 sec
Previous observations
TIME
(EDT)
5-day plot - Wave Height
WVHT
ft
5-day plot - Swell Height
SwH
ft
5-day plot - Swell Period
SwP
sec
5-day plot - Swell Direction
SwD
 
5-day plot - Wind Wave Height
WWH
ft
5-day plot - Wind Wave Period
WWP
sec
5-day plot - Wind Wave Direction
WWD
 
5-day plot - Wave Steepness
STEEPNESS
 
5-day plot - Average Wave Period
APD
sec
2024-06-20 04:40 pm 3.0 2.3 7.7 SE 2.0 5.6 SSE AVERAGE 4.6
2024-06-20 04:10 pm 3.0 2.0 7.7 SE 2.0 5.9 SSE AVERAGE 4.5
2024-06-20 03:40 pm 2.6 2.0 8.3 SE 1.6 4.8 SSE SWELL 4.8
2024-06-20 03:10 pm 2.6 2.3 8.3 SE 1.3 4.3 SE SWELL 5.1
2024-06-20 02:40 pm 2.6 2.3 7.1 SE 1.3 4.5 SE AVERAGE 5.4
2024-06-20 02:10 pm 2.6 2.6 8.3 SE 1.0 4.0 SE SWELL 5.5
2024-06-20 01:40 pm 3.0 2.6 8.3 SE 1.0 3.8 SE SWELL 5.8
2024-06-20 01:10 pm 3.0 2.6 7.7 SE 0.7 3.8 SE AVERAGE 5.9
2024-06-20 12:40 pm 2.6 2.6 8.3 SE 0.7 4.0 SE SWELL 5.9
2024-06-20 12:10 pm 2.6 2.3 8.3 SE 0.7 3.6 SE N/A 5.8
2024-06-20 11:40 am 2.6 2.6 9.1 SE 0.7 3.6 SE N/A 5.9
2024-06-20 11:10 am 2.6 2.3 7.7 SE 0.7 3.7 SE N/A 5.7
2024-06-20 10:40 am 2.6 2.3 7.1 SE 0.7 4.0 SE N/A 5.9
2024-06-20 10:10 am 2.6 2.6 8.3 SE 0.7 3.3 SSE SWELL 5.9
2024-06-20 09:40 am 2.6 2.6 8.3 SE 0.7 4.0 SE N/A 5.9
2024-06-20 09:10 am 2.3 2.3 7.7 SE 0.7 3.8 SE N/A 5.6
2024-06-20 08:40 am 2.6 2.6 8.3 SE 0.7 3.8 SE SWELL 5.8
2024-06-20 08:10 am 2.6 2.3 8.3 SE 1.0 3.4 SE N/A 5.7
2024-06-20 07:40 am 2.3 2.3 7.7SSE 1.0 3.3 SE N/A 5.4
2024-06-20 07:10 am 2.3 2.3 9.1ESE 1.0 3.6 SE N/A 5.4
2024-06-20 06:40 am 2.6 2.3 8.3 SE 1.0 3.8 SSE N/A 5.4
2024-06-20 06:10 am 2.3 2.0 7.1SSE 1.0 3.8 SE N/A 5.2
2024-06-20 05:40 am 2.3 2.3 8.3 SE 1.0 3.4 SSE N/A 5.4
2024-06-20 05:10 am 2.3 2.3 7.7 SE 1.0 4.0 SE N/A 5.2
2024-06-20 04:40 am 2.3 2.3 7.7SSE 1.0 3.7 SSE N/A 5.2
2024-06-20 04:10 am 2.3 2.3 7.1SSE 1.0 4.0 SE N/A 5.4
2024-06-20 03:40 am 2.3 2.0 6.7 SE 1.0 3.3 SSE N/A 5.0
2024-06-20 03:10 am 2.3 2.3 6.7 SE 1.0 4.0 SE N/A 5.2
2024-06-20 02:40 am 2.3 2.3 7.1SSE 1.0 3.4 SSE N/A 5.2
2024-06-20 02:10 am 2.6 2.3 7.1 SE 1.0 3.4 SSE N/A 5.2
2024-06-20 01:40 am 2.3 2.3 7.7SSE 1.0 3.7 SE N/A 5.0
2024-06-20 01:10 am 2.3 2.0 6.7 SE 1.0 3.4 SSE N/A 4.8
2024-06-20 12:40 am 2.3 2.0 8.3 SE 1.0 3.6 SSE N/A 4.8
2024-06-20 12:10 am 2.3 2.3 5.6SSE 1.0 3.3 SSE N/A 4.9
2024-06-19 11:40 pm 2.3 2.0 5.3 SE 1.0 3.3 SE N/A 4.7
2024-06-19 11:10 pm 2.3 2.0 6.2SSE 1.0 4.0 SE N/A 4.7
2024-06-19 10:40 pm 2.3 2.0 6.7 SE 1.0 2.9 SE N/A 4.5
2024-06-19 10:10 pm 2.3 2.0 5.6 SE 1.3 3.8 SE N/A 4.3
2024-06-19 09:40 pm 2.3 2.0 5.6SSE 1.3 4.2 SE N/A 4.4
2024-06-19 09:10 pm 2.3 2.0 6.2SSE 1.3 4.0 SE N/A 4.3
2024-06-19 08:40 pm 2.3 2.0 6.2SSE 1.3 4.5 SSE N/A 4.4
2024-06-19 08:10 pm 2.3 2.0 5.3 S 1.0 4.0 SSE N/A 4.6
2024-06-19 07:40 pm 2.3 2.0 5.9SSE 1.0 4.0 SSE N/A 4.5
2024-06-19 07:10 pm 2.3 2.0 5.9SSE 1.0 3.6 ESE N/A 4.5
2024-06-19 06:40 pm 2.6 2.3 7.1ESE 1.3 3.1 SE N/A 4.6
2024-06-19 06:10 pm 2.6 2.3 5.9 SE 1.3 3.4 ESE N/A 4.4

Plot of wave energy versus frequency (and period)